Tracking 35275 objects as of 9-Sep-2026
HD Live streaming from Space Station
objects crossing your sky now

KINEIS-2A

Track KINEIS-2A now!
10-day predictions
KINEIS-2A is classified as:


NORAD ID: 62932
Int'l Code: 2025-028E
Launch date: February 8, 2025
Source: France (FR)
Launch site: Rocket Lab Launch Complex (RLLC)

Uplink (MHz):
Downlink (MHz): 400.645
Beacon (MHz):
Mode: FM
Call sign:
Status: Unknown

Your satellite tracking list
Your tracking list is empty




NASA's NSSDC Master Catalog

Two Line Element Set (TLE):
1 62932U 25028E   26250.87435412  .00000823  00000-0  13444-3 0  9990
2 62932  98.1228 306.3837 0003195 258.0697 102.0153 14.73555462 84780
Source of the keplerian elements: AFSPC